| time (UTC) | temp F | wind direction | speed knots | gust knots | rain 1hr in | rain 24hr in | rain mn in | humidity % | barometer mb |
| 20260505164507 | 55 | 110 | 0.0 | 2.6 | 0.00 | 1.03 | 0.07 | 86 | 1015.3 |
| 20260505163009 | 54 | 122 | 0.0 | 1.7 | 0.00 | 1.03 | 0.07 | 88 | 1015.3 |
| 20260505161502 | 54 | 168 | 0.0 | 1.7 | 0.00 | 1.03 | 0.07 | 89 | 1015.3 |
| 20260505153102 | 53 | 129 | 0.0 | 0.9 | 0.00 | 1.03 | 0.07 | 91 | 1015.2 |
| 20260505151604 | 52 | 105 | 0.0 | 3.5 | 0.00 | 1.03 | 0.07 | 91 | 1015.1 |
| 20260505140111 | 52 | 94 | 0.0 | 2.6 | 0.00 | 1.03 | 0.07 | 92 | 1014.4 |
| 20260505124548 | 51 | 131 | 0.0 | 0.0 | 0.00 | 1.03 | 0.07 | 92 | 1014.1 |
| 20260505123052 | 51 | 98 | 0.0 | 1.7 | 0.00 | 1.03 | 0.07 | 92 | 1014.1 |
| 20260505121547 | 51 | 120 | 0.0 | 2.6 | 0.00 | 1.03 | 0.07 | 92 | 1014.0 |
| 20260505120051 | 51 | 112 | 0.0 | 1.7 | 0.00 | 1.03 | 0.07 | 91 | 1014.2 |
| 20260505114551 | 51 | 137 | 0.0 | 1.7 | 0.00 | 1.03 | 0.07 | 92 | 1014.3 |
| 20260505113047 | 51 | 197 | 0.0 | 1.7 | 0.00 | 1.03 | 0.07 | 92 | 1014.3 |
| 20260505111543 | 51 | 129 | 0.0 | 1.7 | 0.00 | 1.03 | 0.07 | 92 | 1014.3 |
| 20260505101549 | 52 | 120 | 0.0 | 2.6 | 0.00 | 1.03 | 0.07 | 92 | 1014.0 |
| 20260505100039 | 52 | 108 | 0.0 | 3.5 | 0.00 | 1.03 | 0.07 | 92 | 1014.3 |
| 20260505094540 | 52 | 132 | 0.0 | 0.9 | 0.00 | 1.03 | 0.07 | 92 | 1014.2 |
| 20260505093035 | 52 | 123 | 0.0 | 0.9 | 0.00 | 1.03 | 0.07 | 92 | 1014.6 |
| 20260505091536 | 52 | 155 | 0.0 | 0.0 | 0.00 | 1.03 | 0.07 | 92 | 1014.4 |
| 20260505090032 | 53 | 113 | 0.0 | 0.0 | 0.00 | 1.03 | 0.07 | 92 | 1014.7 |
| 20260505084531 | 53 | 113 | 0.0 | 0.0 | 0.00 | 1.03 | 0.07 | 92 | 1014.8 |
| 20260505083029 | 52 | 113 | 0.0 | 0.0 | 0.02 | 1.03 | 0.07 | 92 | 1014.8 |
| 20260505081529 | 52 | 113 | 0.0 | 0.0 | 0.05 | 1.03 | 0.07 | 92 | 1015.0 |
| 20260505080029 | 52 | 123 | 0.0 | 0.0 | 0.07 | 1.03 | 0.07 | 92 | 1014.8 |
| 20260505074529 | 52 | 123 | 0.0 | 0.0 | 0.07 | 1.03 | 0.07 | 92 | 1014.9 |
| 20260505073025 | 52 | 123 | 0.0 | 0.0 | 0.06 | 1.01 | 0.05 | 92 | 1014.9 |
| 20260505071531 | 52 | 123 | 0.0 | 0.0 | 0.06 | 0.98 | 0.02 | 91 | 1015.1 |
| 20260505070026 | 52 | 97 | 0.0 | 0.0 | 0.06 | 0.96 | 0.00 | 91 | 1015.0 |
| 20260505064520 | 52 | 20 | 0.0 | 0.0 | 0.11 | 0.96 | 0.96 | 91 | 1015.0 |
| 20260505063020 | 52 | 21 | 0.0 | 0.0 | 0.13 | 0.95 | 0.95 | 91 | 1015.2 |
| 20260505061519 | 52 | 19 | 0.0 | 0.0 | 0.13 | 0.92 | 0.92 | 91 | 1015.1 |
| 20260505060036 | 52 | 19 | 0.0 | 0.0 | 0.12 | 0.90 | 0.90 | 91 | 1014.9 |
| 20260505054518 | 52 | 19 | 0.0 | 0.0 | 0.07 | 0.85 | 0.85 | 91 | 1014.9 |
| 20260505053018 | 52 | 19 | 0.0 | 0.0 | 0.04 | 0.82 | 0.82 | 91 | 1014.9 |
| 20260505051524 | 52 | 105 | 0.0 | 0.0 | 0.04 | 0.79 | 0.79 | 91 | 1014.9 |
| 20260505041521 | 52 | 99 | 0.0 | 0.0 | 0.22 | 0.75 | 0.75 | 90 | 1015.0 |
| 20260505040014 | 52 | 319 | 0.0 | 0.0 | 0.24 | 0.71 | 0.71 | 90 | 1015.1 |
| 20260505034514 | 52 | 340 | 0.0 | 0.0 | 0.20 | 0.65 | 0.65 | 90 | 1015.1 |
| 20260505033015 | 52 | 25 | 0.0 | 0.0 | 0.19 | 0.61 | 0.61 | 90 | 1014.9 |
| 20260505031513 | 52 | 4 | 0.0 | 0.9 | 0.12 | 0.53 | 0.53 | 90 | 1014.8 |
| 20260505030011 | 53 | 331 | 0.0 | 0.0 | 0.09 | 0.47 | 0.47 | 90 | 1015.1 |
| 20260505024513 | 53 | 18 | 0.0 | 0.0 | 0.10 | 0.45 | 0.45 | 89 | 1014.7 |
| 20260505023018 | 53 | 127 | 0.0 | 0.0 | 0.11 | 0.42 | 0.42 | 89 | 1014.3 |
| 20260505021514 | 53 | 109 | 0.0 | 0.0 | 0.13 | 0.41 | 0.41 | 89 | 1014.2 |
| 20260505020008 | 53 | 17 | 0.0 | 0.0 | 0.11 | 0.38 | 0.38 | 89 | 1014.4 |
| 20260505014513 | 53 | 123 | 0.0 | 0.0 | 0.09 | 0.34 | 0.34 | 89 | 1014.5 |
| 20260505013006 | 54 | 123 | 0.0 | 0.0 | 0.08 | 0.31 | 0.31 | 89 | 1014.4 |
| 20260505011506 | 53 | 136 | 0.0 | 0.0 | 0.06 | 0.28 | 0.28 | 89 | 1014.3 |
| 20260505010005 | 54 | 136 | 0.0 | 0.0 | 0.06 | 0.27 | 0.27 | 88 | 1014.4 |
| 20260505004503 | 54 | 79 | 0.0 | 0.0 | 0.06 | 0.25 | 0.25 | 88 | 1014.8 |
| 20260505003003 | 54 | 84 | 0.0 | 0.0 | 0.05 | 0.23 | 0.23 | 87 | 1014.8 |
| 20260505001503 | 54 | 84 | 0.0 | 0.0 | 0.07 | 0.22 | 0.22 | 87 | 1014.7 |
| 20260505000004 | 54 | 100 | 0.0 | 0.0 | 0.09 | 0.21 | 0.21 | 87 | 1015.0 |
| 20260504234502 | 55 | 65 | 0.0 | 0.0 | 0.08 | 0.19 | 0.19 | 87 | 1015.0 |
| 20260504233005 | 55 | 121 | 0.0 | 0.9 | 0.08 | 0.18 | 0.18 | 86 | 1014.7 |
| 20260504231501 | 56 | 111 | 0.0 | 0.0 | 0.06 | 0.15 | 0.15 | 87 | 1014.9 |
| 20260504230106 | 56 | 86 | 0.0 | 2.6 | 0.05 | 0.12 | 0.12 | 86 | 1015.0 |
| 20260504224608 | 56 | 135 | 0.0 | 0.0 | 0.05 | 0.11 | 0.11 | 86 | 1015.1 |
| 20260504223103 | 56 | 108 | 0.0 | 1.7 | 0.05 | 0.10 | 0.10 | 85 | 1015.1 |
| 20260504221603 | 56 | 81 | 0.0 | 0.9 | 0.04 | 0.09 | 0.09 | 85 | 1015.3 |
| 20260504220058 | 56 | 86 | 0.0 | 1.7 | 0.02 | 0.07 | 0.07 | 84 | 1015.2 |
| 20260504214613 | 56 | 85 | 0.0 | 0.0 | 0.01 | 0.06 | 0.06 | 82 | 1015.3 |
| 20260504213111 | 57 | 115 | 0.0 | 0.0 | 0.00 | 0.05 | 0.05 | 81 | 1015.3 |
| 20260504211556 | 57 | 82 | 0.0 | 0.9 | 0.00 | 0.05 | 0.05 | 79 | 1015.4 |
| 20260504210058 | 57 | 105 | 0.0 | 0.9 | 0.00 | 0.05 | 0.05 | 80 | 1015.4 |
| 20260504204555 | 57 | 79 | 0.0 | 0.0 | 0.01 | 0.05 | 0.05 | 79 | 1015.2 |
| 20260504203103 | 57 | 115 | 0.0 | 0.9 | 0.01 | 0.05 | 0.05 | 79 | 1015.2 |
| 20260504201608 | 57 | 150 | 0.0 | 0.9 | 0.02 | 0.05 | 0.05 | 81 | 1015.1 |
| 20260504200052 | 57 | 134 | 0.0 | 0.0 | 0.03 | 0.05 | 0.05 | 82 | 1015.2 |
| 20260504194554 | 57 | 111 | 0.0 | 0.0 | 0.02 | 0.04 | 0.04 | 81 | 1015.3 |
| 20260504193051 | 57 | 88 | 0.0 | 0.9 | 0.02 | 0.04 | 0.04 | 79 | 1015.3 |
| 20260504191558 | 57 | 106 | 0.0 | 1.7 | 0.01 | 0.03 | 0.03 | 78 | 1015.3 |
| 20260504190107 | 57 | 121 | 0.0 | 2.6 | 0.00 | 0.02 | 0.02 | 79 | 1015.3 |
| 20260504184603 | 56 | 147 | 0.0 | 3.5 | 0.00 | 0.02 | 0.02 | 79 | 1015.4 |
| 20260504183045 | 56 | 111 | 0.0 | 4.3 | 0.00 | 0.02 | 0.02 | 81 | 1015.5 |
| 20260504181547 | 56 | 172 | 0.0 | 6.1 | 0.01 | 0.02 | 0.02 | 80 | 1015.6 |
| 20260504180044 | 55 | 150 | 0.0 | 3.5 | 0.02 | 0.02 | 0.02 | 82 | 1015.5 |
| 20260504174542 | 55 | 123 | 0.0 | 0.9 | 0.02 | 0.02 | 0.02 | 82 | 1015.4 |
| 20260504173039 | 55 | 141 | 0.0 | 0.0 | 0.02 | 0.02 | 0.02 | 82 | 1015.1 |
| 20260504171538 | 56 | 120 | 0.0 | 2.6 | 0.01 | 0.01 | 0.01 | 80 | 1015.1 |